User: anonymous
Location: Columbia
(38.9520°N, 92.3340°W)
Time: 09:45:19
(UTC-05:00)
Language:

Iridium 15 - Orbit

View from above orbital plane
View from above orbital plane
View from above satellite
View from above satellite

Ground track
Ground track

The orbit data is extracted from the following two-line orbital elements,

1 24869U 97034A   14205.31150333  .00000239  00000-0  78241-4 0  9948
2 24869 086.3971 104.4555 0002224 099.0749 041.6291 14.34215707892148
Epoch (UTC): 24 July 2014 07:28:33
Eccentricity: 0.0002224
inclination: 86.3971°
perigee height: 776 km
apogee height: 779 km
right ascension of ascending node: 104.4555°
argument of perigee: 99.0749°
revolutions per day: 14.34215707
mean anomaly at epoch: 41.6291°
orbit number at epoch: 89214

The dashed part of the orbit path shows where the satellite is in the earth's shadow,  

DLR